[[{"header":{"parameterUnit":"m.s-1","parameterCategory":1,"la1":30.2991,"la2":30.254,"lo1":-89.0895,"lo2":-89.0444,"dy":0.0017,"dx":0.0017,"nx":28,"ny":28,"refTime":"2026-02-01T03:00:00:Z","depth":0,"parameterNumber":2,"parameterNumberName":"U-component_of_WINDS"},"data":[0,0,0,0,0,0,0,0,0,0,0,0,0,0,0,0,0,0,0,0,0,0,0,0,0,0,0,0,0,0,0,0,0,0,0,0,0,0,0,0,0,0,0,0,0,0,0,0,0,0,0,0,0,0,0,0,0,0,2.5269,2.5271,0,2.5426,2.5427,2.5429,2.5419,2.5417,2.5415,2.5412,2.5576,2.5583,2.5589,0,0,0,0,0,0,0,0,0,0,0,0,0,2.4965,2.497,2.5269,2.5271,2.5273,2.5425,2.5427,2.543,2.542,2.5417,2.5414,2.5411,2.5574,2.5582,2.559,0,0,0,0,0,0,0,0,0,0,0,0,0,2.5107,2.4972,2.5268,2.5286,2.5289,2.5425,2.5427,2.543,2.542,2.5417,2.5413,2.541,2.5572,2.5581,2.5591,2.572,0,0,2.5621,2.5625,0,0,0,0,0,0,0,0,2.5099,2.5118,2.5282,2.5285,2.5289,2.5399,2.538,2.5527,2.5421,2.5371,2.5412,2.5408,2.552,2.5534,2.5571,2.5728,2.5735,2.5621,2.5627,2.5631,2.5634,0,0,0,0,0,0,0,2.5089,2.5111,2.5331,2.5284,2.5288,2.5287,2.5304,2.5408,2.5463,2.5375,2.5374,2.5393,2.5522,2.5562,2.5575,2.5737,2.5621,2.563,2.5636,2.564,2.6008,2.6012,0,0,0,0,0,0,2.5075,2.5103,2.5326,2.5336,2.5183,2.5296,2.5314,2.5367,2.5462,2.5473,2.5396,2.5392,2.5547,2.5564,2.5581,2.5737,2.5631,2.5641,2.5646,2.6004,2.6009,2.6013,0,0,0,0,0,0,2.5068,2.5095,2.532,2.5219,2.5248,2.5304,2.5365,2.5372,2.5412,2.5478,2.5488,2.5426,2.5545,2.5567,2.5685,2.5743,2.5645,2.5654,2.5999,2.6005,2.6011,2.6052,0,0,0,0,0,0,2.5059,2.5092,2.5141,2.522,2.5253,2.542,2.5368,2.5378,2.5429,2.5425,2.5509,2.552,2.5544,2.5671,2.5695,2.5755,2.5661,2.5994,2.6002,2.6009,2.6046,2.6059,2.607,0,0,0,0,0,2.5049,2.5147,2.5143,2.517,2.5315,2.5424,2.5442,2.5467,2.5433,2.5483,2.5526,2.5517,2.5733,2.5683,2.571,2.5774,2.5991,2.6,2.6008,2.6041,2.6056,2.607,0,0,0,0,0,0,2.5074,2.5158,2.5154,2.5282,2.5345,2.5422,2.5485,2.5483,2.5559,2.5552,2.5581,2.5601,2.5719,2.5759,2.5701,2.5904,2.5858,2.5872,2.5873,2.5889,2.59,2.5887,2.567,0,0,0,0,0,2.5094,2.5174,2.5244,2.5349,2.5381,2.5428,2.5476,2.549,2.5558,2.5585,2.5636,2.5703,2.5786,2.584,2.592,2.6053,2.6071,2.611,2.6122,2.6132,2.6143,2.6216,2.6234,2.6042,2.6042,2.6042,0,0,2.5137,2.5193,2.5241,2.5356,2.5407,2.549,2.5451,2.554,2.5602,2.5599,2.5712,2.5753,2.583,2.5955,2.6013,2.5992,2.6201,2.6143,2.615,2.6157,2.6227,2.6245,2.6261,2.6048,2.6047,2.6046,0,0,2.5256,2.5307,2.54,2.5452,2.5529,2.556,2.5582,2.566,2.5686,2.58,2.5799,2.5875,2.6018,2.6072,2.6118,2.6261,2.6255,2.6286,2.6348,2.6418,2.6434,2.6447,2.6496,2.6514,2.6298,2.6298,2.6299,0,2.5299,2.5423,2.5448,2.5538,2.5588,2.5589,2.5684,2.5734,2.5834,2.5869,2.5844,2.6023,2.6075,2.6213,2.6247,2.6286,2.6312,2.6275,2.6429,2.6443,2.6456,2.6503,2.6522,2.6301,2.6301,2.6301,2.6301,0,2.5472,2.5558,2.5624,2.5719,2.5778,2.587,2.591,2.5966,2.5976,2.601,2.6127,2.619,2.6282,2.6317,2.6327,2.6457,2.6441,2.6423,2.6376,2.6477,2.6522,2.654,2.6306,2.6305,2.6304,2.6303,0,0,2.5609,2.5718,2.5741,2.5785,2.5871,2.5939,2.6032,2.6122,2.6169,2.624,2.6318,2.6439,2.6422,2.6475,2.6493,2.6555,2.6662,2.6529,2.6531,2.655,2.6808,2.6819,2.684,2.666,2.6664,2.6667,2.6801,0,2.5735,2.5898,2.5924,2.6067,2.6147,2.615,2.6231,2.6294,2.6329,2.6402,2.6442,2.6526,2.6499,2.653,2.6592,2.6636,2.6714,2.6627,2.6733,2.6737,2.6711,2.6864,2.6876,2.6999,2.6819,2.6822,2.6824,0,2.5904,2.5977,2.6128,2.6204,2.6239,2.6311,2.6395,2.6466,2.6538,2.6559,2.6618,2.6628,2.6726,2.6677,2.6812,2.6752,2.6798,2.6826,2.6832,2.6841,2.6784,2.6875,2.704,2.7057,2.6852,2.685,2.6848,0,2.5986,2.6124,2.6231,2.6269,2.6361,2.6411,2.6452,2.652,2.6573,2.6647,2.6682,2.6768,2.6814,2.6881,2.6914,2.6876,2.7047,2.7001,2.7067,2.7066,2.71,2.7097,2.7272,2.7134,2.7133,2.7133,2.7133,0,2.6124,2.6215,2.6269,2.6335,2.6439,2.6469,2.6571,2.6611,2.6672,2.6747,2.6756,2.6826,2.6867,2.6944,2.6971,2.7078,2.71,2.7119,2.7125,2.7117,2.7114,2.7146,2.7137,2.7138,2.7137,2.7136,2.7135,0,2.6231,2.6271,2.6389,2.6467,2.6488,2.6561,2.6628,2.6693,2.6728,2.6823,2.6847,2.6902,2.6993,2.7034,2.7146,2.7164,2.7286,2.7287,2.7261,2.7262,2.7325,2.7317,2.7524,2.7552,2.7397,2.7399,2.74,0,2.6315,2.6385,2.6471,2.6521,2.6563,2.6644,2.6697,2.6731,2.6787,2.6874,2.6929,2.702,2.7093,2.7239,2.729,2.7376,2.7378,2.7444,2.739,2.738,2.7376,2.7371,2.7377,2.7453,2.7454,2.7456,2.7457,0,2.6458,2.6475,2.655,2.6634,2.6697,2.6765,2.6832,2.6873,2.6917,2.6979,2.7072,2.7129,2.7244,2.7334,2.7423,2.7467,2.7469,2.7474,2.7493,2.7484,2.7465,2.7475,2.7285,2.7468,2.7467,2.7466,2.7466,2.7465,2.6555,2.6617,2.6687,2.6772,2.6826,2.6888,2.6952,2.6996,2.7073,2.7168,2.7184,2.7282,2.7354,2.7474,2.7521,2.7599,2.7583,2.7612,2.7618,2.7624,2.7627,2.7455,2.7616,2.7616,2.7616,2.7615,2.7615,0,2.6697,2.6742,2.682,2.6912,2.6979,2.6976,2.705,2.7106,2.7192,2.7258,2.7331,2.7437,2.7525,2.7584,2.7673,2.7724,2.7728,2.7746,2.7741,2.7751,2.7637,2.761,2.7742,2.7742,2.7742,2.7742,2.7742,2.7742,2.6778,2.6883,2.6909,2.7041,2.7087,2.7182,2.7224,2.7282,2.7335,2.7453,2.7525,2.7563,2.7627,2.7721,2.7801,2.7817,2.7848,2.7867,2.7881,2.7773,2.776,2.7747,2.7722,2.7874,2.7875,2.7989,2.799,2.7991]},{"header":{"parameterUnit":"m.s-1","parameterCategory":1,"la1":30.2991,"la2":30.254,"lo1":-89.0895,"lo2":-89.0444,"dy":0.0017,"dx":0.0017,"nx":28,"ny":28,"refTime":"2026-02-01T03:00:00:Z","depth":0,"parameterNumber":3,"parameterNumberName":"V-component_of_WINDS"},"data":[0,0,0,0,0,0,0,0,0,0,0,0,0,0,0,0,0,0,0,0,0,0,0,0,0,0,0,0,0,0,0,0,0,0,0,0,0,0,0,0,0,0,0,0,0,0,0,0,0,0,0,0,0,0,0,0,0,0,3.1397,3.1399,0,3.1531,3.1533,3.1535,3.1559,3.1558,3.1557,3.1556,3.1686,3.1691,3.1695,0,0,0,0,0,0,0,0,0,0,0,0,0,3.1155,3.1159,3.1397,3.1399,3.14,3.1531,3.1533,3.1535,3.1559,3.1558,3.1557,3.1555,3.1685,3.169,3.1696,0,0,0,0,0,0,0,0,0,0,0,0,0,3.1271,3.116,3.1397,3.1428,3.1433,3.1531,3.1533,3.1535,3.1559,3.1558,3.1556,3.1555,3.1683,3.169,3.1696,3.177,0,0,3.1717,3.172,0,0,0,0,0,0,0,0,3.1265,3.128,3.1422,3.1426,3.1431,3.1527,3.1496,3.1614,3.156,3.1511,3.1556,3.1554,3.1634,3.1645,3.1673,3.1776,3.1782,3.1717,3.1722,3.1724,3.1726,0,0,0,0,0,0,0,3.1257,3.1274,3.145,3.1424,3.143,3.1434,3.1449,3.1518,3.158,3.1515,3.1517,3.1533,3.1636,3.1667,3.1677,3.1784,3.1717,3.1723,3.1727,3.173,3.1954,3.1955,0,0,0,0,0,0,3.1244,3.1268,3.1446,3.1454,3.1343,3.1439,3.1456,3.1498,3.1579,3.159,3.1535,3.1534,3.1656,3.1669,3.1681,3.1773,3.1724,3.1731,3.1735,3.1952,3.1954,3.1956,0,0,0,0,0,0,3.1238,3.1259,3.144,3.1362,3.1385,3.1445,3.1492,3.1501,3.1532,3.1594,3.1604,3.1555,3.1655,3.1672,3.1748,3.1778,3.1734,3.174,3.1949,3.1952,3.1955,3.1957,0,0,0,0,0,0,3.1231,3.1257,3.1288,3.1362,3.1389,3.1507,3.1494,3.1505,3.1544,3.1545,3.1616,3.1626,3.1655,3.1738,3.1755,3.1786,3.1745,3.1947,3.1951,3.1954,3.1955,3.196,3.1964,0,0,0,0,0,3.1223,3.1281,3.1289,3.131,3.1429,3.1509,3.1524,3.1559,3.1547,3.1577,3.1616,3.1624,3.1772,3.1746,3.1765,3.1799,3.1945,3.195,3.1954,3.1953,3.1959,3.1964,0,0,0,0,0,0,3.1206,3.1292,3.1301,3.1386,3.1441,3.1513,3.1552,3.1564,3.1621,3.1619,3.1658,3.1673,3.1748,3.1781,3.175,3.1874,3.1858,3.1866,3.185,3.1857,3.1861,3.1851,3.1751,0,0,0,0,0,3.1213,3.1274,3.1344,3.1412,3.1439,3.1491,3.1527,3.1549,3.1606,3.1628,3.1674,3.1726,3.1785,3.1823,3.188,3.196,3.1975,3.1992,3.1997,3.2001,3.2007,3.2051,3.206,3.197,3.197,3.197,0,0,3.1227,3.1281,3.1316,3.141,3.1455,3.1514,3.151,3.1573,3.1617,3.1637,3.1713,3.1748,3.1809,3.1888,3.1925,3.1918,3.2035,3.2006,3.2009,3.2013,3.2057,3.2065,3.2073,3.1973,3.1973,3.1972,0,0,3.1282,3.133,3.1392,3.1437,3.1506,3.154,3.1555,3.1626,3.1651,3.1728,3.1744,3.1796,3.1896,3.1939,3.1974,3.2046,3.2055,3.2064,3.2088,3.2131,3.2138,3.2144,3.2169,3.2178,3.207,3.207,3.207,0,3.129,3.1383,3.1422,3.1485,3.1525,3.1549,3.1611,3.1652,3.1735,3.1761,3.1753,3.1879,3.1922,3.2011,3.2029,3.2056,3.2073,3.2056,3.2134,3.2141,3.2147,3.2172,3.2181,3.2071,3.2071,3.207,3.207,0,3.1389,3.1453,3.1495,3.1577,3.1621,3.1684,3.173,3.177,3.1788,3.1823,3.19,3.1953,3.2021,3.2044,3.2061,3.2135,3.2129,3.2127,3.211,3.2156,3.218,3.2189,3.2072,3.2071,3.2071,3.2071,0,0,3.1438,3.1541,3.1556,3.1593,3.1671,3.172,3.1782,3.1852,3.1885,3.1941,3.1993,3.2078,3.2077,3.2117,3.2139,3.2177,3.223,3.217,3.2172,3.2179,3.2314,3.2315,3.2325,3.2236,3.2238,3.224,3.2309,0,3.1502,3.1618,3.1654,3.1749,3.1808,3.1831,3.1886,3.1938,3.1971,3.2024,3.206,3.212,3.2114,3.2138,3.2177,3.2215,3.2257,3.2211,3.2284,3.2286,3.2268,3.2338,3.2339,3.2401,3.2318,3.232,3.2321,0,3.1593,3.1653,3.1755,3.1826,3.1852,3.19,3.1967,3.2018,3.2077,3.2098,3.2143,3.2163,3.2227,3.2207,3.2295,3.2263,3.2294,3.2318,3.2321,3.2329,3.2306,3.2347,3.2422,3.2431,3.2336,3.2335,3.2334,0,3.1618,3.1724,3.1799,3.183,3.1914,3.1948,3.1984,3.2042,3.2081,3.2138,3.2164,3.2227,3.2261,3.2308,3.2343,3.2326,3.2428,3.2411,3.2446,3.2445,3.2466,3.2464,3.2547,3.2487,3.2487,3.2487,3.2486,0,3.1686,3.1747,3.1812,3.1858,3.1926,3.1967,3.2033,3.207,3.2121,3.2173,3.2196,3.2243,3.2288,3.234,3.2368,3.2436,3.2451,3.2469,3.2476,3.2467,3.2465,3.2488,3.2485,3.2489,3.2489,3.2488,3.2488,0,3.1725,3.1771,3.1854,3.1928,3.1948,3.1995,3.2057,3.2101,3.2136,3.2201,3.2219,3.2272,3.2336,3.2376,3.2456,3.2475,3.2549,3.2554,3.253,3.2533,3.2566,3.2562,3.2667,3.2682,3.2611,3.2612,3.2612,0,3.1766,3.1814,3.1893,3.1931,3.1968,3.2028,3.2069,3.211,3.2152,3.2223,3.2258,3.2324,3.2379,3.2479,3.2523,3.2584,3.2591,3.2623,3.26,3.259,3.2591,3.2588,3.2592,3.2627,3.2627,3.2628,3.2628,0,3.1832,3.1853,3.1913,3.198,3.2029,3.2084,3.2138,3.2167,3.2217,3.2262,3.2329,3.2372,3.2455,3.2519,3.2584,3.2618,3.2631,3.2635,3.2647,3.2638,3.2622,3.2631,3.254,3.2633,3.2632,3.2632,3.2632,3.2631,3.1873,3.1917,3.1981,3.2046,3.2092,3.2142,3.2188,3.2229,3.2287,3.2359,3.2379,3.2449,3.2506,3.2595,3.2631,3.2684,3.268,3.2696,3.27,3.2704,3.2704,3.2614,3.2696,3.2696,3.2696,3.2696,3.2696,0,3.1941,3.1983,3.2043,3.212,3.2171,3.2182,3.2242,3.2283,3.2345,3.2399,3.2453,3.2529,3.2592,3.2642,3.2706,3.2739,3.2746,3.2754,3.2752,3.2759,3.2705,3.2689,3.2747,3.2747,3.2747,3.2747,3.2747,3.2747,3.1982,3.2057,3.2085,3.2183,3.2224,3.2294,3.2328,3.2374,3.2417,3.2502,3.2555,3.2589,3.264,3.2708,3.2765,3.2778,3.28,3.2807,3.2821,3.2769,3.2763,3.2758,3.2743,3.2812,3.2812,3.2871,3.2872,3.2872]}]]